When you browse on this site, cookies collect data to enhance your experience and personalize the content and advertising you see.
Visit our Privacy Policy to learn more. By continuing to use the site, you agree to this use of cookies and data.
  • în România
  • Lista ţărilor
  • Pe 7 zile
  • Temperatura apei
  • Hartă satelitară
  • Meteo pe hartă
  • Widget-uri
  • user-avatar
    Intrare

    Meteo pe oră la London

    Astăzi, 21 Aprilie, Duminică

    Timp Temperatura Precipitaţii Vânt Presiune Umiditate
    00:00 +13°C° 0 mm 2 m/s 768 mmHg 69%
    01:00 +12°C° 0 mm 2 m/s 767 mmHg 70%
    02:00 +12°C° 0 mm 2 m/s 767 mmHg 70%
    03:00 +10°C° 0 mm 2 m/s 766 mmHg 71%
    04:00 +10°C° 0 mm 2 m/s 766 mmHg 73%
    05:00 +11°C° 0 mm 1 m/s 766 mmHg 75%
    06:00 +12°C° 0 mm 1 m/s 766 mmHg 77%
    07:00 +14°C° 0 mm 2 m/s 765 mmHg 72%
    08:00 +16°C° 0 mm 2 m/s 765 mmHg 67%
    09:00 +18°C° 0 mm 2 m/s 765 mmHg 62%
    10:00 +19°C° 0 mm 2 m/s 764 mmHg 56%
    11:00 +20°C° 0 mm 2 m/s 764 mmHg 51%
    12:00 +22°C° 0 mm 3 m/s 763 mmHg 46%
    13:00 +22°C° 0 mm 3 m/s 763 mmHg 44%
    14:00 +22°C° 0 mm 3 m/s 762 mmHg 42%
    15:00 +22°C° 0 mm 3 m/s 762 mmHg 41%
    16:00 +21°C° 0 mm 3 m/s 761 mmHg 43%
    17:00 +20°C° 0 mm 3 m/s 761 mmHg 46%
    18:00 +18°C° 0 mm 3 m/s 760 mmHg 48%
    19:00 +17°C° 0 mm 3 m/s 760 mmHg 49%
    20:00 +16°C° 0 mm 2 m/s 760 mmHg 50%
    21:00 +14°C° 0 mm 2 m/s 760 mmHg 51%
    22:00 +14°C° 0 mm 2 m/s 759 mmHg 53%
    23:00 +13°C° 0 mm 2 m/s 759 mmHg 56%

    Mâine, 22 Aprilie, Luni

    Timp Temperatura Precipitaţii Vânt Presiune Umiditate
    00:00 +12°C° 0 mm 2 m/s 759 mmHg 59%
    01:00 +12°C° 0 mm 2 m/s 758 mmHg 62%
    02:00 +12°C° 0 mm 2 m/s 757 mmHg 66%
    03:00 +12°C° 0 mm 2 m/s 756 mmHg 69%
    04:00 +12°C° 0 mm 2 m/s 756 mmHg 70%
    05:00 +13°C° 0 mm 2 m/s 756 mmHg 72%
    06:00 +13°C° 0 mm 2 m/s 755 mmHg 74%
    07:00 +15°C° 0 mm 2 m/s 755 mmHg 70%
    08:00 +17°C° 0 mm 3 m/s 754 mmHg 67%
    09:00 +19°C° 0 mm 3 m/s 754 mmHg 63%
    10:00 +20°C° 0 mm 4 m/s 753 mmHg 57%
    11:00 +21°C° 0 mm 5 m/s 753 mmHg 51%
    12:00 +22°C° 0 mm 5 m/s 752 mmHg 44%
    13:00 +22°C° 0 mm 5 m/s 752 mmHg 48%
    14:00 +22°C° 0 mm 5 m/s 751 mmHg 51%
    15:00 +22°C° 0 mm 5 m/s 751 mmHg 54%
    16:00 +21°C° 0 mm 4 m/s 751 mmHg 58%
    17:00 +20°C° 0 mm 4 m/s 750 mmHg 61%
    18:00 +19°C° 0 mm 3 m/s 750 mmHg 65%
    19:00 +19°C° 0 mm 3 m/s 750 mmHg 67%
    20:00 +18°C° 0 mm 2 m/s 750 mmHg 70%
    21:00 +17°C° 0 mm 2 m/s 750 mmHg 72%
    22:00 +16°C° 0 mm 2 m/s 750 mmHg 72%
    23:00 +16°C° 0 mm 2 m/s 749 mmHg 72%

    Poimâine, 23 Aprilie, Marţi

    Timp Temperatura Precipitaţii Vânt Presiune Umiditate
    00:00 +15°C° 0 mm 2 m/s 749 mmHg 71%
    01:00 +15°C° 0 mm 2 m/s 749 mmHg 72%
    02:00 +14°C° 0 mm 3 m/s 748 mmHg 72%
    03:00 +13°C° 0 mm 3 m/s 748 mmHg 72%
    04:00 +13°C° 0 mm 3 m/s 748 mmHg 73%
    05:00 +13°C° 0 mm 3 m/s 748 mmHg 74%
    06:00 +13°C° 0 mm 3 m/s 748 mmHg 75%
    07:00 +14°C° 0 mm 4 m/s 748 mmHg 71%
    08:00 +15°C° 0 mm 4 m/s 748 mmHg 67%
    09:00 +18°C° 0 mm 4 m/s 748 mmHg 63%
    10:00 +19°C° 0 mm 4 m/s 747 mmHg 60%
    11:00 +19°C° 0 mm 4 m/s 747 mmHg 56%
    12:00 +20°C° 0 mm 5 m/s 747 mmHg 53%
    13:00 +20°C° 0 mm 5 m/s 747 mmHg 53%
    14:00 +20°C° 0 mm 5 m/s 747 mmHg 54%
    15:00 +20°C° 0 mm 5 m/s 746 mmHg 54%
    16:00 +19°C° 0 mm 4 m/s 746 mmHg 57%
    17:00 +18°C° 0 mm 4 m/s 746 mmHg 59%
    18:00 +17°C° 0 mm 4 m/s 746 mmHg 62%
    19:00 +16°C° 0 mm 3 m/s 746 mmHg 65%
    20:00 +14°C° 0 mm 3 m/s 746 mmHg 67%
    21:00 +13°C° 0 mm 3 m/s 746 mmHg 69%
    22:00 +13°C° 0 mm 3 m/s 745 mmHg 72%
    23:00 +13°C° 0 mm 2 m/s 745 mmHg 75%

    24 Aprilie, Miercuri

    Timp Temperatura Precipitaţii Vânt Presiune Umiditate
    00:00 +13°C° 0 mm 2 m/s 745 mmHg 77%
    01:00 +13°C° 0 mm 2 m/s 745 mmHg 78%
    02:00 +13°C° 0 mm 2 m/s 744 mmHg 80%
    03:00 +13°C° 0 mm 2 m/s 744 mmHg 81%
    04:00 +13°C° 0.8 mm 2 m/s 744 mmHg 84%
    05:00 +13°C° 0.8 mm 2 m/s 744 mmHg 87%
    06:00 +14°C° 0.8 mm 2 m/s 744 mmHg 90%
    07:00 +13°C° 0.4 mm 3 m/s 745 mmHg 85%
    08:00 +13°C° 0.4 mm 4 m/s 746 mmHg 79%
    09:00 +13°C° 0.4 mm 5 m/s 746 mmHg 73%
    10:00 +14°C° 0 mm 5 m/s 746 mmHg 67%
    11:00 +15°C° 0 mm 5 m/s 747 mmHg 61%
    12:00 +15°C° 0 mm 5 m/s 747 mmHg 55%
    13:00 +15°C° 0 mm 5 m/s 747 mmHg 54%
    14:00 +15°C° 0 mm 5 m/s 747 mmHg 52%
    15:00 +15°C° 0 mm 5 m/s 747 mmHg 50%
    16:00 +15°C° 0 mm 5 m/s 747 mmHg 52%
    17:00 +14°C° 0 mm 5 m/s 747 mmHg 55%
    18:00 +13°C° 0 mm 4 m/s 747 mmHg 58%
    19:00 +13°C° 0 mm 5 m/s 747 mmHg 62%
    20:00 +12°C° 0 mm 5 m/s 747 mmHg 65%
    21:00 +12°C° 0 mm 5 m/s 747 mmHg 69%
    22:00 +12°C° 0 mm 5 m/s 747 mmHg 70%
    23:00 +10°C° 0 mm 6 m/s 747 mmHg 70%

    25 Aprilie, Joi

    Timp Temperatura Precipitaţii Vânt Presiune Umiditate
    00:00 +10°C° 0 mm 6 m/s 747 mmHg 70%
    01:00 +10°C° 0 mm 6 m/s 746 mmHg 71%
    02:00 +10°C° 0 mm 6 m/s 746 mmHg 72%
    03:00 +10°C° 0 mm 6 m/s 746 mmHg 74%
    04:00 +10°C° 1.9 mm 6 m/s 746 mmHg 78%
    05:00 +9°C° 1.9 mm 6 m/s 746 mmHg 83%
    06:00 +9°C° 1.9 mm 6 m/s 745 mmHg 88%
    07:00 +10°C° 0.5 mm 6 m/s 746 mmHg 82%
    08:00 +11°C° 0.5 mm 6 m/s 746 mmHg 76%
    09:00 +12°C° 0.5 mm 7 m/s 747 mmHg 69%
    10:00 +12°C° 0.2 mm 7 m/s 748 mmHg 65%
    11:00 +14°C° 0.2 mm 7 m/s 748 mmHg 60%
    12:00 +14°C° 0.2 mm 7 m/s 749 mmHg 55%
    13:00 +14°C° 0.1 mm 7 m/s 749 mmHg 54%
    14:00 +14°C° 0.1 mm 7 m/s 749 mmHg 52%
    15:00 +15°C° 0.1 mm 7 m/s 749 mmHg 51%
    16:00 +14°C° 0.1 mm 7 m/s 749 mmHg 55%
    17:00 +13°C° 0.1 mm 6 m/s 749 mmHg 58%
    18:00 +13°C° 0.1 mm 6 m/s 749 mmHg 62%
    19:00 +11°C° 0 mm 6 m/s 750 mmHg 65%
    20:00 +10°C° 0 mm 5 m/s 750 mmHg 69%
    21:00 +9°C° 0 mm 5 m/s 751 mmHg 72%
    22:00 +9°C° 0 mm 5 m/s 751 mmHg 74%
    23:00 +9°C° 0 mm 5 m/s 751 mmHg 75%

    26 Aprilie, Vineri

    Timp Temperatura Precipitaţii Vânt Presiune Umiditate
    00:00 +9°C° 0 mm 6 m/s 751 mmHg 77%
    01:00 +9°C° 0 mm 6 m/s 751 mmHg 78%
    02:00 +8°C° 0 mm 6 m/s 751 mmHg 79%
    03:00 +8°C° 0 mm 6 m/s 750 mmHg 80%
    04:00 +9°C° 0.4 mm 6 m/s 750 mmHg 81%
    05:00 +9°C° 0.4 mm 6 m/s 751 mmHg 82%
    06:00 +9°C° 0.4 mm 6 m/s 751 mmHg 84%
    07:00 +10°C° 0.5 mm 6 m/s 751 mmHg 80%
    08:00 +12°C° 0.5 mm 5 m/s 751 mmHg 77%
    09:00 +13°C° 0.5 mm 5 m/s 752 mmHg 73%
    10:00 +14°C° 0.2 mm 6 m/s 753 mmHg 67%
    11:00 +15°C° 0.2 mm 7 m/s 753 mmHg 61%
    12:00 +15°C° 0.2 mm 8 m/s 754 mmHg 55%
    13:00 +16°C° 0.1 mm 8 m/s 755 mmHg 55%
    14:00 +16°C° 0.1 mm 8 m/s 755 mmHg 55%
    15:00 +16°C° 0.1 mm 8 m/s 756 mmHg 55%
    16:00 +15°C° 0.1 mm 7 m/s 757 mmHg 58%
    17:00 +14°C° 0.1 mm 7 m/s 758 mmHg 61%
    18:00 +13°C° 0.1 mm 6 m/s 758 mmHg 63%
    19:00 +11°C° 0 mm 6 m/s 759 mmHg 65%
    20:00 +10°C° 0 mm 6 m/s 759 mmHg 67%
    21:00 +9°C° 0 mm 6 m/s 760 mmHg 69%
    22:00 +9°C° 0.2 mm 6 m/s 759 mmHg 73%
    23:00 +10°C° 0.2 mm 7 m/s 759 mmHg 78%
    Arată mai mult